18-08-2022, 00:00:09,     14,    0.0,   14.2,   0.00,   0.00, 1012.9,   98.8, -999.0
18-08-2022, 00:00:19,     14,    0.0,   14.2,   0.00,   0.00, 1012.9,   98.9, -999.0
18-08-2022, 00:00:29,     14,    0.0,   14.1,   0.00,   0.00, 1012.9,   98.8, -999.0
18-08-2022, 00:00:38,     14,    0.0,   14.1,   0.00,   0.00, 1012.9,   98.8, -999.0
18-08-2022, 00:00:49,     14,    0.5,   14.2,   0.00,   0.00, 1013.0,   99.0, -999.0
18-08-2022, 00:00:58,     14,    0.5,   14.2,   0.00,   0.00, 1013.0,   99.1, -999.0
18-08-2022, 00:01:08,     14,    0.0,   14.0,   0.00,   0.00, 1012.9,   98.7, -999.0
18-08-2022, 00:01:18,     14,    0.0,   14.1,   0.00,   0.00, 1012.9,   98.8, -999.0
18-08-2022, 00:01:28,     14,    0.0,   14.1,   0.00,   0.00, 1012.9,   98.8, -999.0
18-08-2022, 00:01:38,     14,    0.0,   14.1,   0.00,   0.00, 1012.9,   98.7, -999.0
18-08-2022, 00:01:48,     14,    0.0,   14.1,   0.00,   0.00, 1012.9,   98.9, -999.0
18-08-2022, 00:01:58,     14,    0.0,   13.9,   0.00,   0.00, 1012.9,   98.8, -999.0
18-08-2022, 00:02:08,     14,    0.0,   14.0,   0.00,   0.00, 1012.9,   98.7, -999.0
18-08-2022, 00:02:18,     14,    0.0,   14.1,   0.00,   0.00, 1012.9,   98.7, -999.0
18-08-2022, 00:02:28,     14,    0.0,   14.2,   0.00,   0.00, 1012.9,   98.8, -999.0
18-08-2022, 00:02:38,     14,    0.0,   14.1,   0.00,   0.00, 1012.9,   98.8, -999.0
18-08-2022, 00:02:48,     14,    0.0,   14.1,   0.00,   0.00, 1012.9,   98.6, -999.0
18-08-2022, 00:02:58,     14,    0.0,   14.1,   0.00,   0.00, 1012.9,   98.7, -999.0
18-08-2022, 00:03:07,     14,    0.0,   14.1,   0.00,   0.00, 1012.9,   98.7, -999.0
18-08-2022, 00:03:18,     14,    0.0,   14.1,   0.00,   0.00, 1012.9,   98.7, -999.0
18-08-2022, 00:03:28,     14,    0.0,   14.1,   0.00,   0.00, 1012.9,   98.8, -999.0
18-08-2022, 00:03:37,     14,    0.0,   14.1,   0.00,   0.00, 1012.9,   98.7, -999.0
18-08-2022, 00:03:47,     14,    0.0,   14.1,   0.00,   0.00, 1012.9,   98.7, -999.0
18-08-2022, 00:03:58,     14,    0.0,   14.1,   0.00,   0.00, 1012.9,   98.7, -999.0
18-08-2022, 00:04:07,     28,    0.7,   14.1,   0.00,   0.00, 1013.0,   98.9, -999.0
18-08-2022, 00:04:17,     35,    1.1,   14.2,   0.00,   0.00, 1013.0,   99.0, -999.0
18-08-2022, 00:04:27,     34,    0.0,   14.1,   0.00,   0.00, 1012.9,   98.8, -999.0
18-08-2022, 00:04:37,     34,    0.0,   14.0,   0.00,   0.00, 1012.9,   98.8, -999.0
18-08-2022, 00:04:47,     35,    0.0,   13.9,   0.00,   0.00, 1013.0,   98.7, -999.0
18-08-2022, 00:04:57,     34,    0.0,   14.0,   0.00,   0.00, 1012.9,   98.7, -999.0
18-08-2022, 00:05:07,     34,    0.0,   13.9,   0.00,   0.00, 1012.9,   98.7, -999.0
18-08-2022, 00:05:17,     34,    0.0,   14.0,   0.00,   0.00, 1012.9,   98.6, -999.0
18-08-2022, 00:05:27,     34,    0.0,   14.0,   0.00,   0.00, 1013.0,   98.7, -999.0
18-08-2022, 00:05:37,     34,    0.0,   14.0,   0.00,   0.00, 1012.9,   98.6, -999.0
18-08-2022, 00:05:47,     34,    0.0,   13.9,   0.00,   0.00, 1012.9,   98.7, -999.0
18-08-2022, 00:05:57,     34,    0.0,   14.0,   0.00,   0.00, 1012.9,   98.8, -999.0
18-08-2022, 00:06:07,     34,    0.0,   13.9,   0.00,   0.00, 1012.9,   98.7, -999.0
18-08-2022, 00:06:16,     34,    0.0,   14.0,   0.00,   0.00, 1012.9,   98.7, -999.0
18-08-2022, 00:06:27,     34,    0.0,   14.0,   0.00,   0.00, 1013.0,   98.8, -999.0
18-08-2022, 00:06:37,     34,    0.0,   14.0,   0.00,   0.00, 1012.9,   98.8, -999.0
18-08-2022, 00:06:46,    309,    0.0,   14.0,   0.00,   0.00, 1012.9,   98.7, -999.0
18-08-2022, 00:06:57,    309,    0.0,   14.0,   0.00,   0.00, 1012.9,   98.7, -999.0
18-08-2022, 00:07:06,    309,    0.0,   14.0,   0.00,   0.00, 1012.9,   98.7, -999.0
18-08-2022, 00:07:16,    309,    0.0,   14.0,   0.00,   0.00, 1012.9,   98.8, -999.0
18-08-2022, 00:07:26,    310,    0.0,   14.0,   0.00,   0.00, 1012.9,   98.7, -999.0
18-08-2022, 00:07:36,    310,    0.0,   14.0,   0.00,   0.00, 1012.9,   98.7, -999.0
18-08-2022, 00:07:46,    311,    0.0,   14.0,   0.00,   0.00, 1012.9,   98.8, -999.0
18-08-2022, 00:07:56,    311,    0.0,   13.9,   0.00,   0.00, 1012.9,   98.6, -999.0
18-08-2022, 00:08:06,    311,    0.0,   13.9,   0.00,   0.00, 1012.9,   98.6, -999.0
18-08-2022, 00:08:16,      0,    0.0,   14.0,   0.00,   0.00, 1012.9,   98.7, -999.0
18-08-2022, 00:08:26,      0,    0.0,   14.0,   0.00,   0.00, 1012.9,   98.7, -999.0
18-08-2022, 00:08:36,      0,    0.0,   13.9,   0.00,   0.00, 1012.9,   98.8, -999.0
18-08-2022, 00:08:46,      0,    0.0,   14.0,   0.00,   0.00, 1012.9,   98.7, -999.0
18-08-2022, 00:08:56,      0,    0.0,   14.0,   0.00,   0.00, 1012.9,   98.7, -999.0
18-08-2022, 00:09:06,      0,    0.0,   14.0,   0.00,   0.00, 1012.9,   98.8, -999.0
18-08-2022, 00:09:15,      0,    0.0,   13.9,   0.00,   0.00, 1012.9,   98.8, -999.0
18-08-2022, 00:09:26,      0,    0.0,   14.1,   0.00,   0.00, 1012.9,   98.7, -999.0
18-08-2022, 00:09:36,      0,    0.0,   14.1,   0.00,   0.00, 1012.9,   98.7, -999.0
18-08-2022, 00:09:45,      0,    0.0,   14.1,   0.00,   0.00, 1013.0,   98.7, -999.0
18-08-2022, 00:09:55,      0,    0.0,   14.1,   0.00,   0.00, 1013.0,   98.7, -999.0
18-08-2022, 00:10:06,      0,    0.0,   14.1,   0.00,   0.00, 1013.0,   98.7, -999.0
18-08-2022, 00:10:15,      0,    0.0,   14.1,   0.00,   0.00, 1012.9,   98.7, -999.0
18-08-2022, 00:10:25,      0,    0.0,   14.1,   0.00,   0.00, 1012.9,   98.7, -999.0
18-08-2022, 00:10:35,      0,    0.0,   14.1,   0.00,   0.00, 1012.9,   98.7, -999.0
18-08-2022, 00:10:45,      0,    0.0,   14.1,   0.00,   0.00, 1012.9,   98.8, -999.0
18-08-2022, 00:10:55,      0,    0.0,   14.1,   0.00,   0.00, 1012.9,   98.8, -999.0
18-08-2022, 00:11:05,      0,    0.0,   14.1,   0.00,   0.00, 1012.9,   98.7, -999.0
18-08-2022, 00:11:15,      0,    0.0,   14.1,   0.00,   0.00, 1013.0,   98.8, -999.0
18-08-2022, 00:11:25,      0,    0.0,   14.1,   0.00,   0.00, 1012.9,   98.8, -999.0
18-08-2022, 00:11:35,      0,    0.0,   14.1,   0.00,   0.00, 1013.0,   98.8, -999.0
18-08-2022, 00:11:45,      0,    0.0,   14.1,   0.00,   0.00, 1013.0,   98.7, -999.0
18-08-2022, 00:11:55,      0,    0.0,   14.1,   0.00,   0.00, 1012.9,   98.7, -999.0
18-08-2022, 00:12:05,      0,    0.0,   14.1,   0.00,   0.00, 1012.9,   98.8, -999.0
18-08-2022, 00:12:15,      0,    0.0,   14.1,   0.00,   0.00, 1013.0,   98.8, -999.0
18-08-2022, 00:12:24,      0,    0.0,   14.1,   0.00,   0.00, 1012.9,   98.7, -999.0
18-08-2022, 00:12:35,      0,    0.0,   14.1,   0.00,   0.00, 1012.9,   98.7, -999.0
18-08-2022, 00:12:45,      0,    0.0,   14.1,   0.00,   0.00, 1012.9,   98.7, -999.0
18-08-2022, 00:12:54,      0,    0.0,   14.1,   0.00,   0.00, 1012.9,   98.7, -999.0
18-08-2022, 00:13:04,      0,    0.0,   14.1,   0.00,   0.00, 1013.0,   98.7, -999.0
18-08-2022, 00:13:14,      0,    0.0,   14.1,   0.00,   0.00, 1013.0,   98.7, -999.0
18-08-2022, 00:13:24,      0,    0.0,   14.0,   0.00,   0.00, 1012.9,   98.7, -999.0
18-08-2022, 00:13:34,      0,    0.0,   14.1,   0.00,   0.00, 1013.0,   98.7, -999.0
18-08-2022, 00:13:44,      0,    0.0,   14.1,   0.00,   0.00, 1013.0,   98.7, -999.0
18-08-2022, 00:13:54,      0,    0.0,   14.1,   0.00,   0.00, 1013.0,   98.8, -999.0
18-08-2022, 00:14:04,      0,    0.0,   14.1,   0.00,   0.00, 1012.9,   98.7, -999.0
18-08-2022, 00:14:14,      0,    0.0,   14.1,   0.00,   0.00, 1013.0,   98.7, -999.0
18-08-2022, 00:14:24,      0,    0.0,   14.1,   0.00,   0.00, 1013.0,   98.8, -999.0
18-08-2022, 00:14:34,      0,    0.0,   14.1,   0.00,   0.00, 1012.9,   98.7, -999.0
18-08-2022, 00:14:44,      0,    0.0,   14.1,   0.00,   0.00, 1013.0,   98.8, -999.0
18-08-2022, 00:14:54,      0,    0.0,   14.1,   0.00,   0.00, 1013.0,   98.7, -999.0
18-08-2022, 00:15:04,      0,    0.0,   14.0,   0.00,   0.00, 1013.0,   98.7, -999.0
18-08-2022, 00:15:14,      6,    0.0,   14.0,   0.00,   0.00, 1013.0,   98.8, -999.0
18-08-2022, 00:15:24,      0,    0.0,   14.0,   0.00,   0.00, 1013.0,   98.7, -999.0
18-08-2022, 00:15:33,      0,    0.0,   14.0,   0.00,   0.00, 1012.9,   98.7, -999.0
18-08-2022, 00:15:44,      0,    0.0,   14.1,   0.00,   0.00, 1013.0,   98.7, -999.0
18-08-2022, 00:15:53,      0,    0.0,   14.0,   0.00,   0.00, 1013.0,   98.7, -999.0
18-08-2022, 00:16:03,      0,    0.0,   14.0,   0.00,   0.00, 1013.0,   98.8, -999.0
18-08-2022, 00:16:14,      0,    0.0,   14.0,   0.00,   0.00, 1012.9,   98.8, -999.0
18-08-2022, 00:16:23,      0,    0.0,   13.9,   0.00,   0.00, 1012.9,   98.7, -999.0
18-08-2022, 00:16:33,      0,    0.0,   14.0,   0.00,   0.00, 1012.9,   98.7, -999.0
18-08-2022, 00:16:43,      0,    0.0,   14.0,   0.00,   0.00, 1013.0,   98.7, -999.0
18-08-2022, 00:16:53,      0,    0.0,   14.0,   0.00,   0.00, 1013.0,   98.8, -999.0
18-08-2022, 00:17:03,      0,    0.0,   14.1,   0.00,   0.00, 1012.9,   98.8, -999.0
18-08-2022, 00:17:13,      0,    0.0,   14.0,   0.00,   0.00, 1013.0,   98.7, -999.0
18-08-2022, 00:17:23,      0,    0.0,   14.1,   0.00,   0.00, 1013.0,   98.7, -999.0
18-08-2022, 00:17:33,      0,    0.0,   14.1,   0.00,   0.00, 1013.0,   98.7, -999.0
18-08-2022, 00:17:43,      0,    0.0,   14.0,   0.00,   0.00, 1013.0,   98.8, -999.0
18-08-2022, 00:17:53,      0,    0.0,   14.0,   0.00,   0.00, 1013.0,   98.8, -999.0
18-08-2022, 00:18:03,      0,    0.0,   14.0,   0.00,   0.00, 1013.0,   98.7, -999.0
18-08-2022, 00:18:13,      0,    0.0,   14.1,   0.00,   0.00, 1013.0,   98.7, -999.0
18-08-2022, 00:18:23,      0,    0.0,   14.1,   0.00,   0.00, 1012.9,   98.7, -999.0
18-08-2022, 00:18:32,      0,    0.0,   14.1,   0.00,   0.00, 1013.0,   98.8, -999.0
18-08-2022, 00:18:43,      0,    0.0,   14.1,   0.00,   0.00, 1013.0,   98.8, -999.0
18-08-2022, 00:18:53,      0,    0.0,   14.1,   0.00,   0.00, 1013.0,   98.8, -999.0
18-08-2022, 00:19:02,      0,    0.0,   14.1,   0.00,   0.00, 1013.0,   98.7, -999.0
18-08-2022, 00:19:12,      0,    0.0,   14.1,   0.00,   0.00, 1012.9,   98.7, -999.0
18-08-2022, 00:19:22,      0,    0.0,   14.1,   0.00,   0.00, 1012.9,   98.8, -999.0
18-08-2022, 00:19:32,      0,    0.0,   14.1,   0.00,   0.00, 1013.0,   98.8, -999.0
18-08-2022, 00:19:42,      0,    0.0,   14.1,   0.00,   0.00, 1012.9,   98.7, -999.0
18-08-2022, 00:19:52,      0,    0.0,   14.0,   0.00,   0.00, 1012.9,   98.8, -999.0
18-08-2022, 00:20:02,      0,    0.0,   14.0,   0.00,   0.00, 1012.9,   98.7, -999.0
18-08-2022, 00:20:12,      0,    0.0,   14.0,   0.00,   0.00, 1013.0,   98.7, -999.0
18-08-2022, 00:20:22,      0,    0.0,   14.0,   0.00,   0.00, 1013.0,   98.7, -999.0
18-08-2022, 00:20:32,      0,    0.0,   14.0,   0.00,   0.00, 1012.9,   98.8, -999.0
18-08-2022, 00:20:42,      0,    0.0,   14.0,   0.00,   0.00, 1013.0,   98.7, -999.0
18-08-2022, 00:20:52,      0,    0.0,   14.0,   0.00,   0.00, 1013.0,   98.7, -999.0
18-08-2022, 00:21:02,      0,    0.0,   14.0,   0.00,   0.00, 1012.9,   98.8, -999.0
18-08-2022, 00:21:12,      0,    0.0,   13.9,   0.00,   0.00, 1012.9,   98.8, -999.0
18-08-2022, 00:21:22,      0,    0.0,   13.9,   0.00,   0.00, 1013.0,   98.7, -999.0
18-08-2022, 00:21:32,      0,    0.0,   14.0,   0.00,   0.00, 1012.9,   98.7, -999.0
18-08-2022, 00:21:41,      0,    0.0,   14.0,   0.00,   0.00, 1013.0,   98.8, -999.0
18-08-2022, 00:21:52,      0,    0.0,   13.9,   0.00,   0.00, 1013.0,   98.8, -999.0
18-08-2022, 00:22:01,    357,    0.0,   13.9,   0.00,   0.00, 1013.0,   98.8, -999.0
18-08-2022, 00:22:11,    357,    0.0,   13.9,   0.00,   0.00, 1012.9,   98.7, -999.0
18-08-2022, 00:22:21,    357,    0.0,   14.0,   0.00,   0.00, 1013.0,   98.7, -999.0
18-08-2022, 00:22:31,    357,    0.0,   13.9,   0.00,   0.00, 1012.9,   98.8, -999.0
18-08-2022, 00:22:41,    357,    0.0,   14.0,   0.00,   0.00, 1012.9,   98.7, -999.0
18-08-2022, 00:22:51,    351,    0.0,   14.0,   0.00,   0.00, 1012.9,   98.8, -999.0
18-08-2022, 00:23:01,      0,    0.0,   14.0,   0.00,   0.00, 1012.9,   98.8, -999.0
18-08-2022, 00:23:11,      0,    0.0,   14.0,   0.00,   0.00, 1012.9,   98.6, -999.0
18-08-2022, 00:23:21,      0,    0.0,   14.0,   0.00,   0.00, 1012.9,   98.6, -999.0
18-08-2022, 00:23:31,      0,    0.0,   14.0,   0.00,   0.00, 1012.9,   98.6, -999.0
18-08-2022, 00:23:41,      0,    0.0,   14.0,   0.00,   0.00, 1012.9,   98.7, -999.0
18-08-2022, 00:23:51,      0,    0.0,   14.0,   0.00,   0.00, 1013.0,   98.8, -999.0
18-08-2022, 00:24:01,      0,    0.0,   14.0,   0.00,   0.00, 1013.0,   98.7, -999.0
18-08-2022, 00:24:12,      0,    0.0,   14.0,   0.00,   0.00, 1013.0,   98.7, -999.0
18-08-2022, 00:24:21,      0,    0.0,   14.0,   0.00,   0.00, 1013.0,   98.7, -999.0
18-08-2022, 00:24:31,      0,    0.0,   14.0,   0.00,   0.00, 1013.0,   98.8, -999.0
18-08-2022, 00:24:40,      0,    0.0,   14.0,   0.00,   0.00, 1013.0,   98.7, -999.0
18-08-2022, 00:24:50,      0,    0.0,   14.0,   0.00,   0.00, 1012.9,   98.7, -999.0
18-08-2022, 00:25:01,    332,    0.3,   13.9,   0.00,   0.00, 1013.0,   98.8, -999.0
18-08-2022, 00:25:10,    332,    1.1,   14.0,   0.00,   0.00, 1013.1,   99.1, -999.0
18-08-2022, 00:25:20,    332,    0.1,   14.0,   0.00,   0.00, 1013.0,   98.8, -999.0
18-08-2022, 00:25:30,    332,    0.0,   14.0,   0.00,   0.00, 1013.0,   98.8, -999.0
18-08-2022, 00:25:40,    332,    0.0,   13.9,   0.00,   0.00, 1013.0,   98.7, -999.0
18-08-2022, 00:25:50,    332,    0.0,   14.0,   0.00,   0.00, 1013.0,   98.6, -999.0
18-08-2022, 00:26:00,    332,    0.0,   14.0,   0.00,   0.00, 1013.0,   98.7, -999.0
18-08-2022, 00:26:10,    332,    0.0,   14.0,   0.00,   0.00, 1013.0,   98.7, -999.0
18-08-2022, 00:26:20,    332,    0.0,   14.0,   0.00,   0.00, 1012.9,   98.7, -999.0
18-08-2022, 00:26:30,    332,    0.0,   14.0,   0.00,   0.00, 1013.0,   98.7, -999.0
18-08-2022, 00:26:40,    332,    0.0,   14.0,   0.00,   0.00, 1013.0,   98.7, -999.0
18-08-2022, 00:26:50,    332,    0.0,   14.0,   0.00,   0.00, 1013.0,   98.8, -999.0
18-08-2022, 00:27:00,    332,    0.1,   14.0,   0.00,   0.00, 1013.0,   98.9, -999.0
18-08-2022, 00:27:10,    332,    0.0,   14.0,   0.00,   0.00, 1013.0,   98.8, -999.0
18-08-2022, 00:27:20,    332,    0.0,   14.0,   0.00,   0.00, 1013.0,   98.6, -999.0
18-08-2022, 00:27:30,    332,    0.0,   14.0,   0.00,   0.00, 1012.9,   98.8, -999.0
18-08-2022, 00:27:40,    332,    0.0,   14.0,   0.00,   0.00, 1012.9,   98.7, -999.0
18-08-2022, 00:27:49,    332,    0.0,   14.0,   0.00,   0.00, 1012.9,   98.7, -999.0
18-08-2022, 00:28:00,    332,    0.0,   14.0,   0.00,   0.00, 1012.9,   98.7, -999.0
18-08-2022, 00:28:09,    332,    0.0,   14.0,   0.00,   0.00, 1013.0,   98.8, -999.0
18-08-2022, 00:28:19,    332,    0.0,   14.0,   0.00,   0.00, 1013.0,   98.8, -999.0
18-08-2022, 00:28:29,    332,    0.0,   14.0,   0.00,   0.00, 1012.9,   98.6, -999.0
18-08-2022, 00:28:39,    332,    0.0,   13.9,   0.00,   0.00, 1013.0,   98.8, -999.0
18-08-2022, 00:28:49,    332,    0.0,   14.0,   0.00,   0.00, 1013.0,   98.8, -999.0
18-08-2022, 00:28:59,    332,    0.0,   13.9,   0.00,   0.00, 1013.0,   98.7, -999.0
18-08-2022, 00:29:09,     47,    0.5,   14.0,   0.00,   0.00, 1013.0,   99.0, -999.0
18-08-2022, 00:29:19,     45,    0.0,   14.0,   0.00,   0.00, 1013.0,   98.9, -999.0
18-08-2022, 00:29:29,     46,    0.0,   13.9,   0.00,   0.00, 1013.0,   98.8, -999.0
18-08-2022, 00:29:39,     45,    0.0,   13.9,   0.00,   0.00, 1013.0,   98.8, -999.0
18-08-2022, 00:29:49,     45,    0.0,   13.9,   0.00,   0.00, 1013.0,   98.8, -999.0
18-08-2022, 00:29:59,     45,    0.0,   13.9,   0.00,   0.00, 1013.0,   98.7, -999.0
18-08-2022, 00:30:09,     45,    0.0,   13.9,   0.00,   0.00, 1013.0,   98.7, -999.0
18-08-2022, 00:30:18,     45,    0.0,   13.9,   0.00,   0.00, 1012.9,   98.7, -999.0
18-08-2022, 00:30:29,     45,    0.0,   13.9,   0.00,   0.00, 1013.0,   98.8, -999.0
18-08-2022, 00:30:39,     45,    0.0,   14.0,   0.00,   0.00, 1013.0,   98.7, -999.0
18-08-2022, 00:30:48,     45,    0.0,   13.9,   0.00,   0.00, 1013.0,   98.7, -999.0
18-08-2022, 00:30:58,     45,    0.0,   13.9,   0.00,   0.00, 1013.0,   98.7, -999.0
18-08-2022, 00:31:09,     45,    0.0,   13.8,   0.00,   0.00, 1013.0,   98.7, -999.0
18-08-2022, 00:31:18,     45,    0.0,   13.9,   0.00,   0.00, 1012.9,   98.8, -999.0
18-08-2022, 00:31:28,    338,    0.0,   13.9,   0.00,   0.00, 1013.0,   98.7, -999.0
18-08-2022, 00:31:38,    337,    0.0,   14.0,   0.00,   0.00, 1012.9,   98.6, -999.0
18-08-2022, 00:31:48,    337,    0.0,   13.9,   0.00,   0.00, 1012.9,   98.7, -999.0
18-08-2022, 00:31:58,    338,    0.0,   13.9,   0.00,   0.00, 1012.9,   98.7, -999.0
18-08-2022, 00:32:08,    337,    0.0,   13.9,   0.00,   0.00, 1012.9,   98.8, -999.0
18-08-2022, 00:32:18,    338,    0.0,   13.9,   0.00,   0.00, 1012.9,   98.7, -999.0
18-08-2022, 00:32:28,    338,    0.0,   13.8,   0.00,   0.00, 1013.0,   98.7, -999.0
18-08-2022, 00:32:38,    338,    0.0,   13.9,   0.00,   0.00, 1012.9,   98.7, -999.0
18-08-2022, 00:32:48,    338,    0.0,   13.9,   0.00,   0.00, 1012.9,   98.8, -999.0
18-08-2022, 00:32:58,    337,    0.0,   13.9,   0.00,   0.00, 1013.0,   98.7, -999.0
18-08-2022, 00:33:08,    337,    0.0,   13.9,   0.00,   0.00, 1012.9,   98.7, -999.0
18-08-2022, 00:33:18,    338,    0.0,   13.9,   0.00,   0.00, 1013.0,   98.7, -999.0
18-08-2022, 00:33:27,    337,    0.0,   13.9,   0.00,   0.00, 1012.9,   98.8, -999.0
18-08-2022, 00:33:38,    337,    0.0,   13.9,   0.00,   0.00, 1012.9,   98.7, -999.0
18-08-2022, 00:33:48,    338,    0.0,   14.0,   0.00,   0.00, 1013.0,   98.7, -999.0
18-08-2022, 00:33:57,    338,    0.0,   13.9,   0.00,   0.00, 1012.9,   98.7, -999.0
18-08-2022, 00:34:08,    338,    0.0,   14.0,   0.00,   0.00, 1013.0,   98.8, -999.0
18-08-2022, 00:34:17,    337,    0.0,   14.0,   0.00,   0.00, 1012.9,   98.8, -999.0
18-08-2022, 00:34:27,    338,    0.0,   14.0,   0.00,   0.00, 1013.0,   98.8, -999.0
18-08-2022, 00:34:37,    338,    0.0,   14.0,   0.00,   0.00, 1013.0,   98.7, -999.0
18-08-2022, 00:34:47,      9,    0.4,   13.9,   0.00,   0.00, 1013.0,   98.8, -999.0
18-08-2022, 00:34:57,      9,    0.2,   14.0,   0.00,   0.00, 1013.0,   99.0, -999.0
18-08-2022, 00:35:07,      8,    0.0,   13.9,   0.00,   0.00, 1013.0,   98.7, -999.0
18-08-2022, 00:35:17,      9,    0.0,   13.9,   0.00,   0.00, 1013.0,   98.8, -999.0
18-08-2022, 00:35:27,      9,    0.0,   14.0,   0.00,   0.00, 1013.0,   98.7, -999.0
18-08-2022, 00:35:37,      9,    0.0,   14.0,   0.00,   0.00, 1013.0,   98.7, -999.0
18-08-2022, 00:35:47,      8,    0.0,   14.0,   0.00,   0.00, 1013.0,   98.6, -999.0
18-08-2022, 00:35:57,      8,    0.0,   14.0,   0.00,   0.00, 1012.9,   98.7, -999.0
18-08-2022, 00:36:07,      8,    0.0,   14.0,   0.00,   0.00, 1012.9,   98.7, -999.0
18-08-2022, 00:36:17,      9,    0.0,   14.0,   0.00,   0.00, 1013.0,   98.8, -999.0
18-08-2022, 00:36:26,      8,    0.0,   14.0,   0.00,   0.00, 1013.0,   98.7, -999.0
18-08-2022, 00:36:37,      8,    0.0,   14.0,   0.00,   0.00, 1013.0,   98.7, -999.0
18-08-2022, 00:36:47,      8,    0.0,   13.9,   0.00,   0.00, 1013.0,   98.7, -999.0
18-08-2022, 00:36:56,      8,    0.0,   14.1,   0.00,   0.00, 1013.0,   98.8, -999.0
18-08-2022, 00:37:06,      9,    0.0,   14.0,   0.00,   0.00, 1013.0,   98.7, -999.0
18-08-2022, 00:37:17,      9,    0.0,   14.0,   0.00,   0.00, 1013.0,   98.7, -999.0
18-08-2022, 00:37:26,      8,    0.0,   14.0,   0.00,   0.00, 1013.0,   98.8, -999.0
18-08-2022, 00:37:36,      9,    0.0,   14.0,   0.00,   0.00, 1013.0,   98.7, -999.0
18-08-2022, 00:37:46,      9,    0.0,   14.0,   0.00,   0.00, 1013.0,   98.8, -999.0
18-08-2022, 00:37:56,      8,    0.0,   14.0,   0.00,   0.00, 1013.0,   98.7, -999.0
18-08-2022, 00:38:06,      8,    0.0,   14.0,   0.00,   0.00, 1013.0,   98.7, -999.0
18-08-2022, 00:38:16,      9,    0.0,   14.1,   0.00,   0.00, 1013.0,   98.7, -999.0
18-08-2022, 00:38:26,      9,    0.0,   14.0,   0.00,   0.00, 1013.0,   98.7, -999.0
18-08-2022, 00:38:36,      9,    0.0,   14.0,   0.00,   0.00, 1013.0,   98.7, -999.0
18-08-2022, 00:38:46,      8,    0.0,   14.0,   0.00,   0.00, 1013.0,   98.7, -999.0
18-08-2022, 00:38:56,      9,    0.0,   14.0,   0.00,   0.00, 1013.0,   98.8, -999.0
18-08-2022, 00:39:06,      9,    0.0,   14.0,   0.00,   0.00, 1013.0,   98.7, -999.0
18-08-2022, 00:39:16,      9,    0.0,   14.0,   0.00,   0.00, 1013.0,   98.7, -999.0
18-08-2022, 00:39:26,      8,    0.0,   14.0,   0.00,   0.00, 1013.0,   98.8, -999.0
18-08-2022, 00:39:35,      9,    0.0,   14.0,   0.00,   0.00, 1013.0,   98.8, -999.0
18-08-2022, 00:39:46,      9,    0.0,   14.0,   0.00,   0.00, 1013.0,   98.8, -999.0
18-08-2022, 00:39:56,      8,    0.0,   14.0,   0.00,   0.00, 1013.0,   98.7, -999.0
18-08-2022, 00:40:05,      8,    0.0,   14.0,   0.00,   0.00, 1013.0,   98.7, -999.0
18-08-2022, 00:40:15,      9,    0.0,   14.0,   0.00,   0.00, 1013.0,   98.7, -999.0
18-08-2022, 00:40:25,      8,    0.0,   13.9,   0.00,   0.00, 1013.0,   98.7, -999.0
18-08-2022, 00:40:35,      8,    0.0,   14.0,   0.00,   0.00, 1013.0,   98.8, -999.0
18-08-2022, 00:40:45,      8,    0.0,   14.0,   0.00,   0.00, 1013.0,   98.7, -999.0
18-08-2022, 00:40:55,      8,    0.0,   13.9,   0.00,   0.00, 1013.0,   98.7, -999.0
18-08-2022, 00:41:05,      8,    0.0,   13.9,   0.00,   0.00, 1013.0,   98.7, -999.0
18-08-2022, 00:41:15,      9,    0.0,   14.0,   0.00,   0.00, 1013.0,   98.7, -999.0
18-08-2022, 00:41:25,      8,    0.0,   13.9,   0.00,   0.00, 1013.0,   98.7, -999.0
18-08-2022, 00:41:35,      9,    0.0,   14.0,   0.00,   0.00, 1013.0,   98.6, -999.0
18-08-2022, 00:41:45,      9,    0.0,   13.9,   0.00,   0.00, 1013.0,   98.8, -999.0
18-08-2022, 00:41:55,      9,    0.0,   13.9,   0.00,   0.00, 1013.0,   98.8, -999.0
18-08-2022, 00:42:05,      9,    0.0,   13.9,   0.00,   0.00, 1013.0,   98.7, -999.0
18-08-2022, 00:42:15,      9,    0.0,   13.9,   0.00,   0.00, 1013.0,   98.7, -999.0
18-08-2022, 00:42:25,      9,    0.0,   13.9,   0.00,   0.00, 1013.0,   98.6, -999.0
18-08-2022, 00:42:34,      8,    0.0,   13.9,   0.00,   0.00, 1013.0,   98.7, -999.0
18-08-2022, 00:42:45,      8,    0.0,   13.9,   0.00,   0.00, 1013.0,   98.7, -999.0
18-08-2022, 00:42:55,      9,    0.0,   13.9,   0.00,   0.00, 1013.0,   98.8, -999.0
18-08-2022, 00:43:04,      9,    0.0,   13.9,   0.00,   0.00, 1013.0,   98.6, -999.0
18-08-2022, 00:43:14,      8,    0.0,   13.9,   0.00,   0.00, 1013.0,   98.6, -999.0
18-08-2022, 00:43:25,      9,    0.0,   13.8,   0.00,   0.00, 1013.0,   98.7, -999.0
18-08-2022, 00:43:34,      9,    0.0,   14.0,   0.00,   0.00, 1013.0,   98.7, -999.0
18-08-2022, 00:43:44,      9,    0.0,   13.9,   0.00,   0.00, 1013.0,   98.7, -999.0
18-08-2022, 00:43:54,      9,    0.0,   14.0,   0.00,   0.00, 1013.0,   98.7, -999.0
18-08-2022, 00:44:04,      8,    0.0,   13.9,   0.00,   0.00, 1013.0,   98.7, -999.0
18-08-2022, 00:44:14,      9,    0.0,   13.9,   0.00,   0.00, 1013.0,   98.8, -999.0
18-08-2022, 00:44:24,      8,    0.0,   13.9,   0.00,   0.00, 1013.0,   98.7, -999.0
18-08-2022, 00:44:34,      9,    0.0,   13.8,   0.00,   0.00, 1013.0,   98.7, -999.0
18-08-2022, 00:44:44,      8,    0.0,   13.8,   0.00,   0.00, 1012.9,   98.8, -999.0
18-08-2022, 00:44:54,      9,    0.0,   13.9,   0.00,   0.00, 1012.9,   98.7, -999.0
18-08-2022, 00:45:04,      9,    0.0,   13.9,   0.00,   0.00, 1013.0,   98.8, -999.0
18-08-2022, 00:45:14,      9,    0.0,   13.9,   0.00,   0.00, 1013.0,   98.8, -999.0
18-08-2022, 00:45:24,      8,    0.0,   13.9,   0.00,   0.00, 1013.0,   98.7, -999.0
18-08-2022, 00:45:34,      9,    0.0,   13.8,   0.00,   0.00, 1013.0,   98.6, -999.0
18-08-2022, 00:45:43,      8,    0.0,   13.9,   0.00,   0.00, 1012.9,   98.7, -999.0
18-08-2022, 00:45:54,      9,    0.0,   13.8,   0.00,   0.00, 1013.0,   98.7, -999.0
18-08-2022, 00:46:04,      9,    0.0,   13.9,   0.00,   0.00, 1013.0,   98.7, -999.0
18-08-2022, 00:46:13,      9,    0.0,   13.9,   0.00,   0.00, 1013.0,   98.8, -999.0
18-08-2022, 00:46:23,      8,    0.0,   13.9,   0.00,   0.00, 1013.0,   98.7, -999.0
18-08-2022, 00:46:33,      8,    0.0,   13.9,   0.00,   0.00, 1013.0,   98.8, -999.0
18-08-2022, 00:46:43,      8,    0.0,   14.0,   0.00,   0.00, 1013.0,   98.7, -999.0